User: anonymous   Login
Location: Bishausen
(51.6334°N, 9.9631°E)
Time: 00:22:20
(UTC+00:00)
Language:

BREEZE-M DEB (TANK) - Orbit

View from above orbital plane
View from above orbital plane
View from above satellite
View from above satellite

Ground track
Ground track

The orbit data is extracted from the following two-line orbital elements,

1 37828U 11054C   24192.97190479  .00006952  00000-0  11329-2 0  9993
2 37828  49.4013  94.2159 5549744 111.2794 314.8218  4.73881202214575
Epoch (UTC): 10 July 2024 23:19:32
Eccentricity: 0.5549744
inclination: 49.4013°
perigee height: 285 km
apogee height: 16903 km
right ascension of ascending node: 94.2159°
argument of perigee: 111.2794°
revolutions per day: 4.73881202
mean anomaly at epoch: 314.8218°
orbit number at epoch: 21457

The dashed part of the orbit path shows where the satellite is in the earth's shadow,  

DLR